sat.trackr.live / text

‹ back to catalog

BALKAN-2

NORAD 69024 · 2026-100AW

PAYLOAD ACTIVE UNKNOWN

§ Identity

Operator
Country
BUL
Launch date
2026-05-03
Launch site
AFWTR
Launch vehicle
Mass (kg)
RCS (m²)

External: N2YO · Heavens-Above · Gunter

§ Orbital elements

Epoch: 2026-09-18T03:47:41.834976Z

Period
94.68 min
Inclination
97.3929°
Eccentricity
0.0004492
Mean motion
15.20884667 rev/d
Perigee alt
500.1 km
Apogee alt
506.3 km
Semi-major
6,881.3 km
B*
1.7058e-4
RAAN
157.2759°
Arg perigee
53.2726°
Mean anomaly
306.8922°
Rev number
2,093

§ Raw data

BALKAN-21 69024U 26100AW  26261.15812309  .00003702  00000+0  17058-3 0  99912 69024  97.3929 157.2759 0004492  53.2726 306.8922 15.20884667 20933

JSON: /api/v1/satellites/69024 · /tle

For live sub-satellite position, see the globe view (requires WebGL).

§ Visibility from observer

Set your observer location to see the next 7 days of passes ≥ 10°. The values pass through the URL so the page stays shareable.

No JS? Fill the form by hand. The geolocation button needs JavaScript.

§ Radio — SatNOGS DB

ModeDescriptionDownlinkUplink
GMSK Mode U - Transmitter 401.360 MHz

1 transmitter · refreshed weekly from db.satnogs.org